TimeEDT,TemperatureF,Dew PointF,Humidity,Sea Level PressureIn,VisibilityMPH,Wind Direction,Wind SpeedMPH,Gust SpeedMPH,PrecipitationIn,Events,Conditions,WindDirDegrees,DateUTC
12:53 AM,70.0,66.0,87,30.02,10.0,Calm,Calm,-,N/A,,Clear,0,2013-08-03 04:53:00
1:53 AM,69.1,66.0,90,30.01,10.0,Calm,Calm,-,N/A,,Clear,0,2013-08-03 05:53:00
2:53 AM,69.1,66.0,90,30.00,10.0,Calm,Calm,-,N/A,,Clear,0,2013-08-03 06:53:00
3:53 AM,69.1,66.0,90,30.01,10.0,Calm,Calm,-,N/A,,Clear,0,2013-08-03 07:53:00
4:53 AM,68.0,66.0,93,30.00,10.0,Calm,Calm,-,N/A,,Partly Cloudy,0,2013-08-03 08:53:00
5:53 AM,68.0,66.0,93,30.01,10.0,Calm,Calm,-,N/A,,Clear,0,2013-08-03 09:53:00
6:53 AM,68.0,66.0,93,30.02,10.0,Calm,Calm,-,N/A,,Clear,0,2013-08-03 10:53:00
7:02 AM,68.0,66.2,94,30.07,10.0,Calm,Calm,-,N/A,,Partly Cloudy,0,2013-08-03 11:02:00
7:53 AM,69.1,66.0,90,30.02,10.0,Calm,Calm,-,N/A,,Clear,0,2013-08-03 11:53:00
8:53 AM,71.1,66.9,87,30.04,10.0,Calm,Calm,-,N/A,,Clear,0,2013-08-03 12:53:00
9:53 AM,75.9,66.9,74,30.04,10.0,Calm,Calm,-,N/A,,Clear,0,2013-08-03 13:53:00
10:53 AM,79.0,66.9,66,30.02,10.0,Calm,Calm,-,N/A,,Clear,0,2013-08-03 14:53:00
11:53 AM,81.0,66.9,62,30.03,10.0,West,6.9,-,N/A,,Clear,260,2013-08-03 15:53:00
12:53 PM,82.9,68.0,60,30.02,10.0,Variable,4.6,-,N/A,,Clear,0,2013-08-03 16:53:00
1:53 PM,87.1,69.1,55,30.02,10.0,West,6.9,-,N/A,,Scattered Clouds,260,2013-08-03 17:53:00
2:53 PM,82.9,69.1,63,30.02,10.0,Variable,5.8,-,N/A,,Overcast,0,2013-08-03 18:53:00
3:53 PM,84.0,69.1,61,30.00,10.0,Variable,4.6,-,N/A,,Overcast,0,2013-08-03 19:53:00
4:53 PM,82.9,69.1,63,30.00,10.0,Calm,Calm,-,N/A,,Overcast,0,2013-08-03 20:53:00
5:53 PM,84.0,69.1,61,29.98,10.0,Calm,Calm,-,N/A,,Partly Cloudy,0,2013-08-03 21:53:00
6:53 PM,82.9,69.1,63,29.97,10.0,Calm,Calm,-,N/A,,Clear,0,2013-08-03 22:53:00
7:53 PM,82.0,70.0,67,29.98,10.0,SW,5.8,-,N/A,,Mostly Cloudy,220,2013-08-03 23:53:00
8:53 PM,80.1,71.1,74,29.98,10.0,Variable,3.5,-,N/A,,Clear,0,2013-08-04 00:53:00
9:53 PM,78.1,72.0,81,30.00,10.0,Calm,Calm,-,N/A,,Mostly Cloudy,0,2013-08-04 01:53:00
10:53 PM,77.0,72.0,84,30.01,10.0,SSW,3.5,-,N/A,,Clear,210,2013-08-04 02:53:00
11:53 PM,75.9,71.1,85,30.01,10.0,Calm,Calm,-,N/A,,Overcast,0,2013-08-04 03:53:00